Tracking 35237 objects as of 6-Sep-2026
HD Live streaming from Space Station
objects crossing your sky now

STARLINK-31334

Track STARLINK-31334 now!
10-day predictions
STARLINK-31334 is classified as:


NORAD ID: 59157
Int'l Code: 2024-044F
Launch date: March 4, 2024
Source: United States (US)
Launch site: AIR FORCE EASTERN TEST RANGE (AFETR)
Your satellite tracking list
Your tracking list is empty




NASA's NSSDC Master Catalog

Two Line Element Set (TLE):
1 59157U 24044F   26249.21748198 -.00000486  00000-0 -81311-5 0  9993
2 59157  43.0010 171.0572 0000953 253.7670 106.3077 15.27574348141137
Source of the keplerian elements: AFSPC